Bookmark and Share
Track history (hours):
 

Rheinfels

Last reported at 2014-Apr-19 13:23 UTC. Time now 2014-Apr-19 14:31 UTC.
Position N 55°52' W 004°21'.

Length 89 m; draft 5.6 m.

Type: Cargo ship. MMSI: 304010767.

NotesDate/timePositionNaut miles runAvg speedWind from/ knotsBaromVisibWave heightAir tempDewpointWater temp
2014-Apr-19 13:23N 55°52' W 004°21'0 0.0
2014-Apr-19 12:30N 55°52' W 004°21'5 5.2
2014-Apr-19 11:33N 55°55' W 004°28'10 9.8
2014-Apr-19 10:33N 55°57' W 004°45'7 6.8
2014-Apr-19 09:33N 55°54' W 004°55'9 8.6
2014-Apr-19 08:28N 55°44' W 004°59'8 8.5
2014-Apr-19 07:33N 55°37' W 004°60'8 7.2
2014-Apr-19 06:26N 55°29' W 005°00'13 6.7
2014-Apr-19 04:28N 55°15' W 005°02'10 8.5
2014-Apr-19 03:15N 55°06' W 005°11'6 9.2
2014-Apr-19 02:33N 55°01' W 005°17'9 9.1
2014-Apr-19 01:33N 54°52' W 005°16'9 8.5
2014-Apr-19 00:33N 54°44' W 005°11'7 7.5
2014-Apr-18 23:33N 54°37' W 005°07'8 7.6
2014-Apr-18 22:33N 54°30' W 005°03'8 8.1
2014-Apr-18 21:33N 54°22' W 005°01'9 8.5
2014-Apr-18 20:30N 54°13' W 005°04'8 8.7
2014-Apr-18 19:33N 54°05' W 005°07'  
2014-Apr-12 23:23N 45°36' W 001°25'0 0.0
2014-Apr-12 22:29N 45°36' W 001°25'  

Dump ship's entire track history

sailing weather and tide predictions

Rheinfels — V2AI4 — position and weather